Los Alamitos, CA

10:01 PM PDT on May 26, 2017 (GMT -0700)
Los Alamitos Army Air Field

Weather History for KSLI - October, 2013

Change the Weather History Date:

Wednesday, October 30, 2013

  Actual Average Record
Temperature  
Mean Temperature 58 °F -  
Max Temperature 71 °F 72 °F 93 °F (1999)
Min Temperature 48 °F 57 °F 47 °F (2011)
Degree Days  
Heating Degree Days 6    
Growing Degree Days 8 (Base 50)    
Moisture  
Dew Point 48 °F    
Average Humidity 75    
Maximum Humidity 100    
Minimum Humidity 32    
Precipitation  
Precipitation 0.00 in - - ()
Sea Level Pressure  
Sea Level Pressure 30.03 in    
Wind  
Wind Speed 4 mph (North)    
Max Wind Speed 13 mph    
Max Gust Speed -    
Visibility 10 miles    
Events      
Averages and records for this station are not official NWS values.
T = Trace of Precipitation, MM = Missing Value Source: NWS Daily Summary

Daily Weather History Graph

Daily Weather History Graph

Search for Another Location

Airport or City:

Trip Planner

Search our weather history database for the weather conditions in past years. The results will help you decide how hot, cold, wet, or windy it might be!

Date:

Astronomy

Oct. 30, 2013 Rise Set
Actual Time 7:09 AM PDT 6:01 PM PDT
Civil Twilight 6:44 AM PDT 6:26 PM PDT
Nautical Twilight 6:14 AM PDT 6:56 PM PDT
Astronomical Twilight 5:45 AM PDT 7:25 PM PDT
Moon 3:14 AM PDT (10/30) 3:39 PM PDT (10/30)
Length of Visible Light 11h 42m
Length of Day
10h 51m
Waning Crescent, 16% of the Moon is Illuminated
Oct 30
Waning Crescent
Nov 3
New
Nov 9
First Quarter
Nov 17
Full
Nov 25
Last Quarter

Hourly Weather History & Observations

Time (PDT) Temp. Dew Point Humidity Pressure Visibility Wind Dir Wind Speed Gust Speed Precip Events Conditions
12:58 AM 52.7 °F 52.5 °F 99% 30.02 in 10.0 mi ENE 2.3 mph - N/A   Clear
1:58 AM 51.6 °F 51.6 °F 100% 30.02 in 10.0 mi ENE 3.5 mph - N/A   Clear
2:58 AM 50.9 °F 50.9 °F 100% 30.02 in 10.0 mi ENE 2.3 mph - N/A   Clear
3:58 AM 50.9 °F 50.9 °F 100% 30.02 in 10.0 mi ENE 2.3 mph - N/A   Clear
4:58 AM 49.3 °F 49.3 °F 100% 30.02 in 10.0 mi ENE 2.3 mph - N/A   Clear
5:58 AM 49.6 °F 49.6 °F 100% 30.03 in 10.0 mi NE 3.5 mph - N/A   Clear
6:58 AM 48.7 °F 48.7 °F 100% 30.04 in 10.0 mi North 2.3 mph - N/A   Clear
7:58 AM 50.0 °F 50.0 °F 100% 30.06 in 10.0 mi North 3.5 mph - N/A   Clear
8:58 AM 56.1 °F 53.4 °F 91% 30.07 in 10.0 mi NE 3.5 mph - N/A   Clear
9:58 AM 60.4 °F 51.4 °F 72% 30.08 in 10.0 mi Calm Calm - N/A   Clear
10:58 AM 64.4 °F 49.1 °F 58% 30.08 in 10.0 mi SW 2.3 mph - N/A   Clear
11:58 AM 67.3 °F 46.6 °F 47% 30.06 in 10.0 mi Variable 1.2 mph - N/A   Clear
12:58 PM 68.5 °F 47.8 °F 48% 30.04 in 10.0 mi SW 8.1 mph - N/A   Clear
1:58 PM 68.7 °F 47.5 °F 47% 30.01 in 10.0 mi SSW 8.1 mph - N/A   Clear
2:58 PM 69.6 °F 44.2 °F 40% 30.00 in 10.0 mi SW 9.2 mph - N/A   Clear
3:58 PM 68.7 °F 38.7 °F 33% 29.99 in 10.0 mi SW 12.7 mph - N/A   Clear
4:58 PM 68.5 °F 37.2 °F 32% 29.99 in 10.0 mi SW 10.4 mph - N/A   Clear
5:58 PM 64.6 °F 44.8 °F 49% 30.00 in 10.0 mi WNW 11.5 mph - N/A   Clear
6:58 PM 61.5 °F 41.4 °F 48% 30.01 in 10.0 mi WNW 5.8 mph - N/A   Clear
7:58 PM 59.2 °F 43.5 °F 56% 30.03 in 10.0 mi WNW 4.6 mph - N/A   Clear
8:58 PM 56.5 °F 48.0 °F 73% 30.03 in 10.0 mi Calm Calm - N/A   Clear
9:58 PM 54.7 °F 54.1 °F 98% 30.04 in 10.0 mi Calm Calm - N/A   Clear
10:58 PM 52.3 °F 52.0 °F 99% 30.06 in 10.0 mi Calm Calm - N/A   Clear
11:58 PM 52.7 °F 52.7 °F 100% 30.06 in 10.0 mi East 2.3 mph - N/A   Clear